DW9771 Weather Reports


Display with metric or nautical units.
time (UTC)temp
F
wind
direction
speed
MPH
gust
MPH
rain 1hr
in
rain 24hr
in
rain mn
in
humidity
%
barometer
mb
20260503221539 71 314 7.0 13.0 0.00 0.01 0.01 51 1010.5
20260503220035 71 330 7.0 15.0 0.00 0.01 0.01 51 1010.7
20260503214533 72 349 6.0 14.0 0.00 0.01 0.01 50 1010.7
20260503213033 74 338 6.0 12.0 0.00 0.01 0.01 47 1010.7
20260503211530 76 10 6.0 10.0 0.00 0.01 0.01 46 1010.7
20260503210027 75 338 4.0 9.0 0.00 0.01 0.01 47 1010.9
20260503204526 75 355 5.0 10.0 0.00 0.01 0.01 47 1011.1
20260503203031 75 354 4.0 10.0 0.00 0.01 0.01 47 1011.2
20260503201522 77 346 4.0 7.0 0.00 0.01 0.01 47 1011.3
20260503200021 77 336 2.0 5.0 0.00 0.01 0.01 48 1011.5
20260503194516 77 97 1.0 4.0 0.00 0.01 0.01 45 1011.7
20260503193012 75 83 2.0 5.0 0.00 0.01 0.01 49 1011.8
20260503191508 74 26 2.0 5.0 0.00 0.01 0.01 54 1012.0
20260503190007 73 120 3.0 7.0 0.00 0.01 0.01 57 1012.0
20260503184510 73 91 2.0 6.0 0.00 0.01 0.01 58 1012.0
20260503183104 71 87 4.0 8.0 0.00 0.01 0.01 61 1012.2
20260503181558 71 39 3.0 7.0 0.00 0.01 0.01 62 1012.3
20260503180058 70 75 3.0 7.0 0.00 0.01 0.01 65 1012.4
20260503174552 69 30 4.0 9.0 0.00 0.01 0.01 66 1012.5
20260503173050 68 51 5.0 11.0 0.00 0.01 0.01 66 1012.5
20260503171608 67 79 4.0 10.0 0.00 0.01 0.01 69 1012.6
20260503081540 50 76 1.0 2.0 0.00 0.00 0.00 97 1013.7
20260503071552 49 127 0.0 2.0 0.00 0.00 0.00 97 1013.7
20260503054529 51 80 0.0 2.0 0.00 0.00 0.00 97 1013.9
20260503053035 50 339 0.0 1.0 0.00 0.00 0.00 97 1013.8
20260503051529 50 338 0.0 0.0 0.00 0.00 0.00 97 1013.9
20260503050026 50 338 0.0 2.0 0.00 0.00 0.00 97 1013.7
20260503044542 50 341 1.0 3.0 0.00 0.00 0.00 97 1013.6
20260503043039 50 18 1.0 3.0 0.00 0.00 0.00 97 1013.4
20260503041524 50 345 2.0 7.0 0.00 0.00 0.00 97 1013.3
20260503040026 50 316 3.0 7.0 0.00 0.00 0.00 96 1013.1
20260503034522 50 305 5.0 9.0 0.00 0.00 0.00 96 1013.1
20260503033021 50 333 3.0 8.0 0.00 0.00 0.00 96 1012.9
20260503031526 50 13 3.0 8.0 0.00 0.00 0.00 95 1012.9
20260503030019 51 344 5.0 11.0 0.00 0.00 0.00 95 1012.9
20260503024520 51 30 4.0 9.0 0.00 0.00 0.00 95 1012.9
20260503023017 51 356 3.0 8.0 0.00 0.00 0.00 95 1012.8
20260503021517 51 344 5.0 10.0 0.00 0.00 0.00 94 1012.8
20260503020016 51 332 5.0 10.0 0.00 0.00 0.00 93 1012.9
20260503014514 51 339 6.0 11.0 0.00 0.00 0.00 93 1012.9
20260503013014 52 334 2.0 11.0 0.00 0.00 0.00 93 1013.1
20260503011513 52 304 8.0 15.0 0.00 0.00 0.00 91 1013.0
20260503010012 53 337 8.0 16.0 0.00 0.00 0.00 91 1012.9
20260503004509 53 324 8.0 14.0 0.00 0.00 0.00 89 1013.0
20260503003008 55 342 8.0 15.0 0.00 0.00 0.00 87 1013.1
20260503001507 55 23 9.0 15.0 0.00 0.00 0.00 86 1013.1
20260503000005 55 348 6.0 14.0 0.00 0.00 0.00 86 1013.1
20260502234502 56 341 8.0 13.0 0.00 0.00 0.00 84 1013.4
20260502233100 56 326 7.0 13.0 0.00 0.00 0.00 85 1013.5
20260502231600 56 1 8.0 15.0 0.00 0.00 0.00 84 1013.9
20260502230056 57 314 6.0 14.0 0.00 0.00 0.00 84 1014.0
20260502224553 56 322 8.0 15.0 0.00 0.00 0.00 83 1014.3
20260502223051 57 333 8.0 14.0 0.00 0.00 0.00 83 1014.6